Alva, OK

4:59 AM CDT on August 18, 2017 (GMT -0500)
Alva Regional

Weather History for KAVK - March, 2013

Change the Weather History Date:

Saturday, March 2, 2013

  Actual Average Record
Temperature  
Mean Temperature 24 °F -  
Max Temperature 35 °F 57 °F 85 °F (1974)
Min Temperature 14 °F 35 °F 4 °F (1951)
Degree Days  
Heating Degree Days 40    
Moisture  
Dew Point 23 °F    
Average Humidity 89    
Maximum Humidity 100    
Minimum Humidity 75    
Precipitation  
Precipitation 0.00 in - - ()
Sea Level Pressure  
Sea Level Pressure 30.29 in    
Wind  
Wind Speed 7 mph (South)    
Max Wind Speed 10 mph    
Max Gust Speed -    
Visibility 7 miles    
Events Fog    
Averages and records for this station are not official NWS values.
T = Trace of Precipitation, MM = Missing Value Source: NWS Daily Summary

Daily Weather History Graph

Daily Weather History Graph

Search for Another Location

Airport or City:

Trip Planner

Search our weather history database for the weather conditions in past years. The results will help you decide how hot, cold, wet, or windy it might be!

Date:

Astronomy

Mar. 02, 2013 Rise Set
Actual Time 7:03 AM CST 6:30 PM CST
Civil Twilight 6:37 AM CST 6:56 PM CST
Nautical Twilight 6:07 AM CST 7:26 PM CST
Astronomical Twilight 5:37 AM CST 7:56 PM CST
Moon No Moon Rise 9:41 AM CST (3/2)
Length of Visible Light 12h 18m
Length of Day
11h 26m
Waning Gibbous, 74% of the Moon is Illuminated
Mar 2
Waning Gibbous
Mar 4
Last Quarter
Mar 11
New
Mar 19
First Quarter
Mar 27
Full

Hourly Weather History & Observations

Time (CST) Temp. Windchill Dew Point Humidity Pressure Visibility Wind Dir Wind Speed Gust Speed Precip Events Conditions
12:10 AM 24.8 °F 16.1 °F 21.2 °F 86% 30.37 in 9.0 mi NNW 8.1 mph - N/A   Clear
12:30 AM 23.0 °F 13.9 °F 19.4 °F 86% 30.37 in 9.0 mi NNW 8.1 mph - N/A   Clear
12:50 AM 23.0 °F 12.4 °F 19.4 °F 86% 30.38 in 7.0 mi NW 10.4 mph - N/A   Clear
1:10 AM 23.0 °F 13.9 °F 19.4 °F 86% 30.37 in 7.0 mi North 8.1 mph - N/A   Clear
1:30 AM 21.2 °F 11.7 °F 19.4 °F 93% 30.37 in 8.0 mi North 8.1 mph - N/A   Clear
1:50 AM 21.2 °F 12.6 °F 19.4 °F 93% 30.38 in 8.0 mi NNW 6.9 mph - N/A   Clear
2:10 AM 23.0 °F 12.4 °F 19.4 °F 86% 30.38 in 7.0 mi NW 10.4 mph - N/A   Clear
2:30 AM 17.6 °F 7.3 °F 17.6 °F 100% 30.38 in 6.0 mi NW 8.1 mph - N/A   Clear
2:50 AM 17.6 °F 7.3 °F 17.6 °F 100% 30.37 in 6.0 mi NW 8.1 mph - N/A   Clear
3:10 AM 21.2 °F 12.6 °F 19.4 °F 93% 30.37 in 7.0 mi NNW 6.9 mph - N/A   Clear
3:30 AM 21.2 °F 13.6 °F 19.4 °F 93% 30.37 in 7.0 mi NNW 5.8 mph - N/A   Clear
3:50 AM 19.4 °F 8.6 °F 19.4 °F 100% 30.37 in 7.0 mi NNW 9.2 mph - N/A   Clear
4:10 AM 19.4 °F 9.5 °F 17.6 °F 93% 30.36 in 7.0 mi North 8.1 mph - N/A   Clear
4:30 AM 19.4 °F 10.4 °F 19.4 °F 100% 30.35 in 5.0 mi NW 6.9 mph - N/A   Clear
4:50 AM 19.4 °F 10.4 °F 19.4 °F 100% 30.36 in 5.0 mi NW 6.9 mph - N/A   Clear
5:10 AM 19.4 °F 10.4 °F 17.6 °F 93% 30.36 in 5.0 mi NNW 6.9 mph - N/A   Clear
5:30 AM 17.6 °F 10.7 °F 17.6 °F 100% 30.37 in 4.0 mi NNW 4.6 mph - N/A   Clear
6:10 AM 14.0 °F 6.5 °F 12.2 °F 93% 30.36 in 0.2 mi West 4.6 mph - N/A Fog Light Freezing Fog
6:30 AM 14.0 °F 8.2 °F 12.2 °F 93% 30.36 in 0.2 mi NW 3.5 mph - N/A Fog Light Freezing Fog
6:50 AM 17.6 °F 8.2 °F 17.6 °F 100% 30.37 in 0.2 mi WNW 6.9 mph - N/A Fog Light Freezing Fog
7:10 AM 14.0 °F 5.1 °F 10.4 °F 86% 30.38 in 0.2 mi West 5.8 mph - N/A Fog Light Freezing Fog
7:30 AM 14.0 °F 5.1 °F 10.4 °F 86% 30.36 in 0.2 mi West 5.8 mph - N/A Fog Light Freezing Fog
7:50 AM 15.8 °F 6.1 °F 14.0 °F 93% 30.37 in 1.2 mi WNW 6.9 mph - N/A   Clear
8:10 AM 15.8 °F 7.2 °F 14.0 °F 93% 30.37 in 3.0 mi West 5.8 mph - N/A   Clear
8:30 AM 15.8 °F 10.2 °F 14.0 °F 93% 30.37 in 3.0 mi WSW 3.5 mph - N/A   Clear
8:50 AM 15.8 °F 10.2 °F 14.0 °F 93% 30.38 in 5.0 mi SW 3.5 mph - N/A   Clear
9:10 AM 17.6 °F 12.3 °F 15.8 °F 93% 30.37 in 5.0 mi SW 3.5 mph - N/A   Clear
9:30 AM 19.4 °F - 17.6 °F 93% 30.37 in 8.0 mi Calm Calm - N/A   Clear
9:50 AM 19.4 °F 12.8 °F 19.4 °F 100% 30.37 in 9.0 mi South 4.6 mph - N/A   Clear
10:10 AM 23.0 °F 18.4 °F 21.2 °F 93% 30.37 in 7.0 mi SSW 3.5 mph - N/A   Clear
10:30 AM 24.8 °F 19.1 °F 24.8 °F 100% 30.36 in 7.0 mi South 4.6 mph - N/A   Partly Cloudy
10:50 AM 24.8 °F 17.9 °F 24.8 °F 100% 30.35 in 7.0 mi South 5.8 mph - N/A   Mostly Cloudy
11:10 AM 26.6 °F 20.0 °F 26.6 °F 100% 30.35 in 5.0 mi South 5.8 mph - N/A   Overcast
11:30 AM 28.4 °F 21.2 °F 26.6 °F 93% 30.34 in 6.0 mi South 6.9 mph - N/A   Overcast
11:50 AM 30.2 °F 23.4 °F 26.6 °F 86% 30.33 in 6.0 mi SSE 6.9 mph - N/A   Mostly Cloudy
12:10 PM 32.0 °F 24.8 °F 26.6 °F 80% 30.32 in 7.0 mi SSE 8.1 mph - N/A   Mostly Cloudy
12:30 PM 32.0 °F 24.2 °F 26.6 °F 80% 30.31 in 7.0 mi SE 9.2 mph - N/A   Overcast
12:50 PM 32.0 °F 24.8 °F 26.6 °F 80% 30.30 in 7.0 mi SE 8.1 mph - N/A   Mostly Cloudy
1:10 PM 32.0 °F 24.8 °F 26.6 °F 80% 30.29 in 8.0 mi SE 8.1 mph - N/A   Partly Cloudy
1:30 PM 32.0 °F 24.8 °F 26.6 °F 80% 30.28 in 9.0 mi SE 8.1 mph - N/A   Clear
1:50 PM 32.0 °F 24.8 °F 26.6 °F 80% 30.28 in 8.0 mi SE 8.1 mph - N/A   Clear
2:10 PM 32.0 °F 24.8 °F 26.6 °F 80% 30.27 in 8.0 mi ESE 8.1 mph - N/A   Clear
2:30 PM 32.0 °F 24.8 °F 28.4 °F 87% 30.27 in 9.0 mi ESE 8.1 mph - N/A   Clear
2:50 PM 32.0 °F 25.6 °F 28.4 °F 87% 30.26 in 9.0 mi ESE 6.9 mph - N/A   Clear
3:10 PM 33.8 °F 27.7 °F 28.4 °F 81% 30.26 in 10.0 mi East 6.9 mph - N/A   Clear
3:30 PM 33.8 °F 29.6 °F 28.4 °F 81% 30.24 in 10.0 mi SE 4.6 mph - N/A   Clear
4:10 PM 33.8 °F 29.6 °F 28.4 °F 81% 30.23 in 10.0 mi ESE 4.6 mph - N/A   Clear
4:30 PM 35.6 °F 32.8 °F 28.4 °F 75% 30.23 in 9.0 mi ESE 3.5 mph - N/A   Clear
4:50 PM 35.6 °F 30.7 °F 28.4 °F 75% 30.22 in 9.0 mi East 5.8 mph - N/A   Clear
5:10 PM 35.6 °F 29.9 °F 28.4 °F 75% 30.22 in 10.0 mi East 6.9 mph - N/A   Clear
5:30 PM 35.6 °F 29.9 °F 28.4 °F 75% 30.20 in 10.0 mi East 6.9 mph - N/A   Clear
5:50 PM 35.6 °F 29.9 °F 28.4 °F 75% 30.21 in 10.0 mi East 6.9 mph - N/A   Clear
6:30 PM 33.8 °F 29.6 °F 28.4 °F 81% 30.19 in 10.0 mi SE 4.6 mph - N/A   Clear
6:50 PM 33.8 °F 28.6 °F 28.4 °F 81% 30.19 in 10.0 mi ESE 5.8 mph - N/A   Clear
7:30 PM 33.8 °F 30.8 °F 28.4 °F 81% 30.19 in 10.0 mi ESE 3.5 mph - N/A   Clear
7:50 PM 32.0 °F - 28.4 °F 87% 30.19 in 10.0 mi Calm Calm - N/A   Clear
8:10 PM 32.0 °F - 28.4 °F 87% 30.19 in 10.0 mi Calm Calm - N/A   Clear
8:30 PM 32.0 °F - 30.2 °F 93% 30.19 in 10.0 mi Calm Calm - N/A   Clear
8:50 PM 32.0 °F 28.7 °F 28.4 °F 87% 30.18 in 10.0 mi SSE 3.5 mph - N/A   Clear
9:10 PM 32.0 °F - 28.4 °F 87% 30.17 in 10.0 mi Calm Calm - N/A   Clear
9:30 PM 32.0 °F - 28.4 °F 87% 30.17 in 10.0 mi Calm Calm - N/A   Clear
9:50 PM 32.0 °F - 28.4 °F 87% 30.18 in 10.0 mi Calm Calm - N/A   Clear
10:10 PM 32.0 °F 28.7 °F 28.4 °F 87% 30.16 in 10.0 mi SE 3.5 mph - N/A   Clear
10:30 PM 32.0 °F 28.7 °F 28.4 °F 87% 30.16 in 9.0 mi SSE 3.5 mph - N/A   Clear
10:50 PM 32.0 °F 25.6 °F 28.4 °F 87% 30.14 in 7.0 mi South 6.9 mph - N/A   Clear
11:10 PM 28.4 °F 21.2 °F 28.4 °F 100% 30.13 in 7.0 mi SSW 6.9 mph - N/A   Clear
11:30 PM 30.2 °F 24.3 °F 28.4 °F 93% 30.12 in 7.0 mi SSW 5.8 mph - N/A   Clear
11:50 PM 28.4 °F 23.3 °F 28.4 °F 100% 30.13 in 7.0 mi SW 4.6 mph - N/A   Clear